Station Historical Data
Daily Summary for January 10, 2017 Units:  Metric    English   Both
« Previous Day
Next Day »
Daily Weekly Monthly Yearly Custom
  High: Low: Average:
Temperature: 8.2 °C 4.7 °C 6.4 °C
Dew Point: 7.7 °C 4.1 °C 5.9 °C
Humidity: 98 % 96 % 97 %
Wind Speed: 45.1 km/h 0 km/h 19.5 km/h
Wind Gust: 67.6 km/h - -
Wind:- - South
Pressure: 1018.2 hPa 1004.3 hPa -
Precipitation: 0 mm    
Historical Graphs
 
 
Tabular Data for January 10, 2017
Time Temperature Dew Point Pressure Wind Wind Speed Wind Gust Humidity Rainfall Rate (Hourly) solar
00:03 6.2 °C 5.6 °C 1017.8 hPa South 16.1 km/h 40.2 km/h 96 % 3.3 mm 0.00 W/m2
00:08 6.1 °C 5.5 °C 1017.8 hPa SW 11.3 km/h 45.1 km/h 96 % 1.78 mm 0.00 W/m2
00:13 6.1 °C 5.4 °C 1017.8 hPa SW 20.9 km/h 30.6 km/h 96 % 1.52 mm 0.00 W/m2
00:18 6.1 °C 5.4 °C 1017.8 hPa SSW 25.7 km/h 32.2 km/h 96 % 1.52 mm 0.00 W/m2
00:23 6.1 °C 5.4 °C 1017.5 hPa SW 6.4 km/h 38.6 km/h 96 % 1.52 mm 0.00 W/m2
00:28 6.1 °C 5.4 °C 1017.5 hPa South 16.1 km/h 37 km/h 96 % 1.78 mm 0.00 W/m2
00:33 6.1 °C 5.4 °C 1017.5 hPa SW 19.3 km/h 45.1 km/h 96 % 1.78 mm 0.00 W/m2
00:38 6.1 °C 5.4 °C 1017.2 hPa South 16.1 km/h 40.2 km/h 96 % 2.03 mm 0.00 W/m2
00:43 6.1 °C 5.4 °C 1017.5 hPa SSW 22.5 km/h 49.9 km/h 96 % 3.56 mm 0.00 W/m2
00:48 6.1 °C 5.5 °C 1017.2 hPa SSW 25.7 km/h 37 km/h 96 % 2.29 mm 0.00 W/m2
00:53 6.2 °C 5.6 °C 1017.2 hPa SSW 22.5 km/h 33.8 km/h 96 % 4.06 mm 0.00 W/m2
00:58 6.2 °C 5.6 °C 1017.2 hPa SSE 9.7 km/h 49.9 km/h 96 % 3.05 mm 0.00 W/m2
01:03 6.2 °C 5.6 °C 1017.2 hPa SSW 17.7 km/h 29 km/h 96 % 4.57 mm 0.00 W/m2
01:08 6.2 °C 5.6 °C 1017.5 hPa WSW 6.4 km/h 27.4 km/h 96 % 7.11 mm 0.00 W/m2
01:13 6.2 °C 5.6 °C 1017.8 hPa South 19.3 km/h 38.6 km/h 96 % 5.59 mm 0.00 W/m2
01:18 6.2 °C 5.6 °C 1017.8 hPa SW 30.6 km/h 30.6 km/h 96 % 6.35 mm 0.00 W/m2
01:23 6.2 °C 5.6 °C 1017.5 hPa SSW 9.7 km/h 22.5 km/h 96 % 14.99 mm 0.00 W/m2
01:28 6.2 °C 5.6 °C 1017.8 hPa SSW 17.7 km/h 27.4 km/h 96 % 6.6 mm 0.00 W/m2
01:33 6.3 °C 5.7 °C 1018.2 hPa SW 29 km/h 38.6 km/h 96 % 6.35 mm 0.00 W/m2
01:38 6.3 °C 5.7 °C 1017.8 hPa South 12.9 km/h 24.1 km/h 96 % 4.57 mm 0.00 W/m2
01:43 6.3 °C 5.7 °C 1017.8 hPa SSW 20.9 km/h 40.2 km/h 96 % 4.32 mm 0.00 W/m2
01:48 6.3 °C 5.7 °C 1018.2 hPa SSE 30.6 km/h 38.6 km/h 96 % 3.05 mm 0.00 W/m2
01:53 6.3 °C 5.7 °C 1018.2 hPa SSE 22.5 km/h 43.5 km/h 96 % 4.06 mm 0.00 W/m2
01:58 6.3 °C 5.7 °C 1017.8 hPa SSW 27.4 km/h 32.2 km/h 96 % 4.06 mm 0.00 W/m2
02:03 6.3 °C 5.7 °C 1017.8 hPa South 14.5 km/h 40.2 km/h 96 % 3.56 mm 0.00 W/m2
02:08 6.3 °C 5.7 °C 1017.8 hPa South 11.3 km/h 33.8 km/h 96 % 3.81 mm 0.00 W/m2
02:13 6.3 °C 5.7 °C 1017.8 hPa SSW 11.3 km/h 22.5 km/h 96 % 4.32 mm 0.00 W/m2
02:18 6.3 °C 5.7 °C 1017.8 hPa South 24.1 km/h 38.6 km/h 96 % 4.57 mm 0.00 W/m2
02:23 6.3 °C 5.7 °C 1017.8 hPa SSW 1.6 km/h 40.2 km/h 96 % 3.56 mm 0.00 W/m2
02:28 6.3 °C 5.7 °C 1017.8 hPa SSW 16.1 km/h 38.6 km/h 96 % 3.05 mm 0.00 W/m2
02:33 6.3 °C 5.7 °C 1017.8 hPa South 17.7 km/h 35.4 km/h 96 % 4.57 mm 0.00 W/m2
02:38 6.3 °C 5.7 °C 1017.8 hPa South 24.1 km/h 32.2 km/h 96 % 4.83 mm 0.00 W/m2
02:43 6.3 °C 5.7 °C 1017.8 hPa SSE 24.1 km/h 32.2 km/h 96 % 4.83 mm 0.00 W/m2
02:48 6.3 °C 5.7 °C 1017.5 hPa SSE 16.1 km/h 22.5 km/h 96 % 3.3 mm 0.00 W/m2
02:53 6.3 °C 5.7 °C 1017.5 hPa South 6.4 km/h 25.7 km/h 96 % 4.57 mm 0.00 W/m2
02:58 6.2 °C 5.6 °C 1017.5 hPa SSE 14.5 km/h 22.5 km/h 96 % 3.81 mm 0.00 W/m2
03:03 6.2 °C 5.6 °C 1017.5 hPa SW 11.3 km/h 22.5 km/h 96 % 5.08 mm 0.00 W/m2
03:09 6.2 °C 5.6 °C 1017.5 hPa SSE 6.4 km/h 22.5 km/h 96 % 5.08 mm 0.00 W/m2
03:14 6.2 °C 5.6 °C 1017.5 hPa SSE 29 km/h 30.6 km/h 96 % 3.81 mm 0.00 W/m2
03:19 6.2 °C 5.6 °C 1017.2 hPa SE 6.4 km/h 32.2 km/h 96 % 4.32 mm 0.00 W/m2
03:24 6.1 °C 5.5 °C 1017.2 hPa SSE 16.1 km/h 29 km/h 96 % 4.32 mm 0.00 W/m2
03:29 6.1 °C 5.5 °C 1017.2 hPa South 1.6 km/h 29 km/h 96 % 3.3 mm 0.00 W/m2
03:34 6.1 °C 5.5 °C 1017.2 hPa South 20.9 km/h 33.8 km/h 96 % 4.32 mm 0.00 W/m2
03:39 6.1 °C 5.4 °C 1016.8 hPa South 25.7 km/h 25.7 km/h 96 % 4.83 mm 0.00 W/m2
03:44 6.1 °C 5.4 °C 1016.8 hPa South 11.3 km/h 33.8 km/h 96 % 4.32 mm 0.00 W/m2
03:49 6.1 °C 5.5 °C 1016.8 hPa SSE 17.7 km/h 32.2 km/h 96 % 3.81 mm 0.00 W/m2
03:54 6.1 °C 5.5 °C 1016.8 hPa South 11.3 km/h 43.5 km/h 96 % 3.56 mm 0.00 W/m2
03:59 6.1 °C 5.5 °C 1016.8 hPa SSE 25.7 km/h 37 km/h 96 % 3.05 mm 0.00 W/m2
04:04 6.2 °C 5.6 °C 1016.8 hPa SW 27.4 km/h 33.8 km/h 96 % 3.81 mm 0.00 W/m2
04:09 6.2 °C 5.6 °C 1016.8 hPa SSW 20.9 km/h 30.6 km/h 96 % 3.3 mm 0.00 W/m2
04:14 6.2 °C 5.6 °C 1016.5 hPa South 16.1 km/h 30.6 km/h 96 % 3.56 mm 0.00 W/m2
04:19 6.2 °C 5.6 °C 1016.5 hPa South 20.9 km/h 29 km/h 96 % 3.3 mm 0.00 W/m2
04:24 6.2 °C 5.6 °C 1016.5 hPa SW 16.1 km/h 41.8 km/h 96 % 5.08 mm 0.00 W/m2
04:29 6.3 °C 5.7 °C 1016.5 hPa South 11.3 km/h 35.4 km/h 96 % 4.32 mm 0.00 W/m2
04:34 6.3 °C 5.7 °C 1016.5 hPa SSE 6.4 km/h 25.7 km/h 96 % 5.08 mm 0.00 W/m2
04:39 6.3 °C 5.7 °C 1016.1 hPa South 4.8 km/h 33.8 km/h 96 % 5.08 mm 0.00 W/m2
04:44 6.3 °C 5.7 °C 1016.1 hPa SSW 19.3 km/h 29 km/h 96 % 4.83 mm 0.00 W/m2
04:49 6.3 °C 5.7 °C 1016.1 hPa South 14.5 km/h 37 km/h 96 % 3.56 mm 0.00 W/m2
04:54 6.4 °C 5.8 °C 1015.8 hPa SSE 20.9 km/h 30.6 km/h 96 % 3.05 mm 0.00 W/m2
04:59 6.4 °C 5.8 °C 1015.8 hPa South 38.6 km/h 38.6 km/h 96 % 2.54 mm 0.00 W/m2
05:04 6.4 °C 5.8 °C 1015.8 hPa South 25.7 km/h 40.2 km/h 96 % 3.05 mm 0.00 W/m2
05:09 6.4 °C 5.8 °C 1015.8 hPa SSE 14.5 km/h 38.6 km/h 96 % 4.83 mm 0.00 W/m2
05:14 6.5 °C 5.9 °C 1015.5 hPa SSE 16.1 km/h 40.2 km/h 96 % 3.05 mm 0.00 W/m2
05:19 6.5 °C 5.9 °C 1015.5 hPa SSW 12.9 km/h 45.1 km/h 96 % 4.57 mm 0.00 W/m2
05:24 6.5 °C 5.9 °C 1015.5 hPa SSE 14.5 km/h 41.8 km/h 96 % 2.54 mm 0.00 W/m2
05:29 6.6 °C 5.9 °C 1015.5 hPa SSE 33.8 km/h 40.2 km/h 96 % 2.29 mm 0.00 W/m2
05:34 6.6 °C 5.9 °C 1015.5 hPa South 16.1 km/h 37 km/h 96 % 3.05 mm 0.00 W/m2
05:39 6.6 °C 5.9 °C 1015.5 hPa South 19.3 km/h 37 km/h 96 % 3.56 mm 0.00 W/m2
05:44 6.6 °C 5.9 °C 1015.5 hPa SSE 22.5 km/h 37 km/h 96 % 3.3 mm 0.00 W/m2
05:49 6.6 °C 6.2 °C 1015.5 hPa SE 12.9 km/h 30.6 km/h 97 % 4.32 mm 0.00 W/m2
05:54 6.6 °C 6.2 °C 1015.5 hPa SSE 11.3 km/h 35.4 km/h 97 % 3.05 mm 0.00 W/m2
05:59 6.6 °C 6.2 °C 1015.5 hPa SE 12.9 km/h 32.2 km/h 97 % 3.56 mm 0.00 W/m2
06:04 6.6 °C 5.9 °C 1015.5 hPa South 29 km/h 32.2 km/h 96 % 3.05 mm 0.00 W/m2
06:09 6.6 °C 6.1 °C 1015.5 hPa South 12.9 km/h 35.4 km/h 97 % 3.3 mm 0.00 W/m2
06:14 6.6 °C 5.9 °C 1015.5 hPa SSE 12.9 km/h 20.9 km/h 96 % 3.56 mm 0.00 W/m2
06:19 6.6 °C 5.9 °C 1015.5 hPa SE 19.3 km/h 20.9 km/h 96 % 4.83 mm 0.00 W/m2
06:24 6.5 °C 5.9 °C 1015.5 hPa SSE 14.5 km/h 29 km/h 96 % 3.05 mm 0.00 W/m2
06:29 6.4 °C 5.8 °C 1015.5 hPa SE 22.5 km/h 27.4 km/h 96 % 3.05 mm 0.00 W/m2
06:34 6.3 °C 5.7 °C 1015.5 hPa South 17.7 km/h 17.7 km/h 96 % 6.86 mm 0.00 W/m2
06:39 6.2 °C 5.6 °C 1015.5 hPa SSE 19.3 km/h 27.4 km/h 96 % 4.83 mm 0.00 W/m2
06:44 6.1 °C 5.5 °C 1015.5 hPa SSE 24.1 km/h 24.1 km/h 96 % 4.06 mm 0.00 W/m2
06:49 6 °C 5.4 °C 1015.5 hPa South 11.3 km/h 25.7 km/h 96 % 3.3 mm 0.00 W/m2
06:54 5.9 °C 5.3 °C 1015.8 hPa SSE 9.7 km/h 30.6 km/h 96 % 3.56 mm 0.00 W/m2
06:59 5.9 °C 5.3 °C 1015.5 hPa South 17.7 km/h 22.5 km/h 96 % 4.57 mm 0.00 W/m2
07:04 5.9 °C 5.3 °C 1015.8 hPa South 14.5 km/h 24.1 km/h 96 % 4.32 mm 0.00 W/m2
07:09 5.8 °C 5.2 °C 1015.8 hPa SSE 12.9 km/h 16.1 km/h 96 % 7.87 mm 0.00 W/m2
07:14 5.8 °C 5.2 °C 1015.5 hPa SE 14.5 km/h 14.5 km/h 96 % 7.37 mm 0.00 W/m2
07:19 5.8 °C 5.2 °C 1015.8 hPa South 9.7 km/h 19.3 km/h 96 % 7.62 mm 0.00 W/m2
07:24 5.8 °C 5.2 °C 1015.8 hPa South 9.7 km/h 14.5 km/h 96 % 6.6 mm 0.00 W/m2
07:29 5.8 °C 5.2 °C 1015.5 hPa Calm   14.5 km/h 96 % 6.86 mm 0.00 W/m2
07:34 5.8 °C 5.2 °C 1015.5 hPa SSE 9.7 km/h 12.9 km/h 96 % 5.84 mm 0.00 W/m2
07:39 5.8 °C 5.2 °C 1015.5 hPa SSE 1.6 km/h 17.7 km/h 96 % 5.08 mm 0.00 W/m2
07:44 5.8 °C 5.2 °C 1015.8 hPa Calm   11.3 km/h 96 % 5.84 mm 0.00 W/m2
07:49 5.8 °C 5.2 °C 1015.5 hPa SSE 9.7 km/h 19.3 km/h 96 % 3.81 mm 0.00 W/m2
07:54 5.8 °C 5.2 °C 1015.5 hPa SSE 9.7 km/h 19.3 km/h 96 % 7.37 mm 0.00 W/m2
07:59 5.7 °C 5.1 °C 1015.5 hPa SE 11.3 km/h 24.1 km/h 96 % 8.89 mm 5.00 W/m2
08:04 5.7 °C 5.1 °C 1015.5 hPa SSE 16.1 km/h 27.4 km/h 96 % 4.06 mm 5.00 W/m2
08:09 5.7 °C 5.1 °C 1015.5 hPa SSE 17.7 km/h 19.3 km/h 96 % 6.1 mm 5.00 W/m2
08:14 5.7 °C 5.1 °C 1015.5 hPa South 16.1 km/h 29 km/h 96 % 4.83 mm 7.00 W/m2
08:19 5.6 °C 5 °C 1015.5 hPa SSE 6.4 km/h 33.8 km/h 96 % 4.83 mm 7.00 W/m2
08:24 5.6 °C 5 °C 1015.5 hPa SE 16.1 km/h 29 km/h 96 % 6.35 mm 7.00 W/m2
08:30 5.6 °C 4.9 °C 1015.8 hPa South 24.1 km/h 24.1 km/h 96 % 9.14 mm 7.00 W/m2
08:35 5.6 °C 4.9 °C 1015.8 hPa SSE 14.5 km/h 27.4 km/h 96 % 4.83 mm 7.00 W/m2
08:40 5.6 °C 4.9 °C 1016.1 hPa SSW 32.2 km/h 38.6 km/h 96 % 4.57 mm 9.00 W/m2
08:45 5.6 °C 5 °C 1015.8 hPa South 20.9 km/h 40.2 km/h 96 % 3.05 mm 12.00 W/m2
08:50 5.7 °C 5.1 °C 1015.8 hPa South 8 km/h 35.4 km/h 96 % 3.56 mm 9.00 W/m2
08:55 5.8 °C 5.2 °C 1016.1 hPa South 12.9 km/h 35.4 km/h 96 % 4.32 mm 9.00 W/m2
09:00 5.8 °C 5.2 °C 1015.8 hPa SSW 12.9 km/h 32.2 km/h 96 % 3.56 mm 9.00 W/m2
09:05 5.9 °C 5.3 °C 1015.8 hPa South 22.5 km/h 38.6 km/h 96 % 4.32 mm 7.00 W/m2
09:10 6 °C 5.6 °C 1015.8 hPa South 30.6 km/h 40.2 km/h 97 % 3.56 mm 11.00 W/m2
09:15 6.1 °C 5.6 °C 1016.1 hPa SSE 11.3 km/h 37 km/h 97 % 2.54 mm 9.00 W/m2
09:20 6.1 °C 5.7 °C 1016.1 hPa SW 14.5 km/h 40.2 km/h 97 % 2.54 mm 12.00 W/m2
09:25 6.1 °C 5.7 °C 1016.1 hPa SSE 33.8 km/h 37 km/h 97 % 2.29 mm 11.00 W/m2
09:30 6.1 °C 5.7 °C 1015.8 hPa SSE 19.3 km/h 40.2 km/h 97 % 2.29 mm 16.00 W/m2
09:35 6.1 °C 5.7 °C 1015.8 hPa SSE 17.7 km/h 48.3 km/h 97 % 2.29 mm 12.00 W/m2
09:40 6.1 °C 5.7 °C 1015.8 hPa ESE 6.4 km/h 40.2 km/h 97 % 3.56 mm 14.00 W/m2
09:45 6.2 °C 5.7 °C 1016.1 hPa SSE 30.6 km/h 49.9 km/h 97 % 3.3 mm 14.00 W/m2
09:50 6.2 °C 5.6 °C 1016.1 hPa SSW 4.8 km/h 40.2 km/h 96 % 4.06 mm 21.00 W/m2
09:55 6.3 °C 5.8 °C 1016.1 hPa South 25.7 km/h 43.5 km/h 97 % 3.56 mm 18.00 W/m2
10:00 6.3 °C 5.8 °C 1016.1 hPa SSE 11.3 km/h 41.8 km/h 97 % 2.29 mm 16.00 W/m2
10:05 6.3 °C 5.9 °C 1016.1 hPa South 22.5 km/h 41.8 km/h 97 % 2.29 mm 16.00 W/m2
10:10 6.3 °C 5.9 °C 1016.1 hPa SSE 9.7 km/h 32.2 km/h 97 % 2.29 mm 16.00 W/m2
10:15 6.3 °C 5.9 °C 1016.1 hPa SSE 16.1 km/h 46.7 km/h 97 % 4.57 mm 23.00 W/m2
10:20 6.3 °C 5.9 °C 1015.8 hPa ESE 27.4 km/h 40.2 km/h 97 % 2.29 mm 18.00 W/m2
10:25 6.3 °C 5.9 °C 1015.8 hPa SSW 16.1 km/h 37 km/h 97 % 2.29 mm 21.00 W/m2
10:30 6.3 °C 5.9 °C 1015.8 hPa South 14.5 km/h 45.1 km/h 97 % 2.29 mm 21.00 W/m2
10:35 6.3 °C 5.9 °C 1015.8 hPa SSE 29 km/h 40.2 km/h 97 % 3.05 mm 21.00 W/m2
10:40 6.3 °C 5.7 °C 1015.8 hPa SSE 17.7 km/h 43.5 km/h 96 % 2.03 mm 21.00 W/m2
10:45 6.3 °C 5.7 °C 1015.8 hPa South 19.3 km/h 48.3 km/h 96 % 3.05 mm 21.00 W/m2
10:50 6.3 °C 5.7 °C 1016.1 hPa South 30.6 km/h 43.5 km/h 96 % 2.54 mm 18.00 W/m2
10:55 6.3 °C 5.7 °C 1016.1 hPa SSE 6.4 km/h 46.7 km/h 96 % 2.29 mm 18.00 W/m2
11:00 6.3 °C 5.7 °C 1015.8 hPa South 25.7 km/h 48.3 km/h 96 % 3.05 mm 23.00 W/m2
11:05 6.2 °C 5.6 °C 1015.8 hPa SE 25.7 km/h 49.9 km/h 96 % 1.78 mm 16.00 W/m2
11:10 6.2 °C 5.6 °C 1015.8 hPa SSE 19.3 km/h 38.6 km/h 96 % 1.27 mm 18.00 W/m2
11:15 6.1 °C 5.7 °C 1015.5 hPa South 32.2 km/h 38.6 km/h 97 % 1.27 mm 21.00 W/m2
11:20 6.1 °C 5.4 °C 1015.5 hPa SSE 29 km/h 32.2 km/h 96 % 1.27 mm 21.00 W/m2
11:25 6 °C 5.4 °C 1015.1 hPa SSE 29 km/h 35.4 km/h 96 % 1.27 mm 19.00 W/m2
11:30 5.9 °C 5.3 °C 1014.8 hPa SE 17.7 km/h 35.4 km/h 96 % 1.78 mm 23.00 W/m2
11:35 5.9 °C 5.3 °C 1014.8 hPa South 32.2 km/h 33.8 km/h 96 % 1.78 mm 19.00 W/m2
11:40 5.9 °C 5.3 °C 1014.1 hPa SSE 20.9 km/h 40.2 km/h 96 % 2.54 mm 25.00 W/m2
11:45 5.9 °C 5.3 °C 1014.1 hPa SE 14.5 km/h 41.8 km/h 96 % 2.29 mm 19.00 W/m2
11:50 5.9 °C 5.3 °C 1014.1 hPa SSE 12.9 km/h 27.4 km/h 96 % 2.29 mm 21.00 W/m2
11:55 5.8 °C 5.2 °C 1013.8 hPa SE 19.3 km/h 48.3 km/h 96 % 2.29 mm 28.00 W/m2
12:00 5.8 °C 5.2 °C 1013.8 hPa SSE 12.9 km/h 33.8 km/h 96 % 2.29 mm 18.00 W/m2
12:05 5.8 °C 5.2 °C 1013.8 hPa SSE 24.1 km/h 40.2 km/h 96 % 3.3 mm 21.00 W/m2
12:10 5.7 °C 5.1 °C 1013.8 hPa SSE 14.5 km/h 40.2 km/h 96 % 3.05 mm 21.00 W/m2
12:15 5.6 °C 4.9 °C 1013.4 hPa SE 22.5 km/h 40.2 km/h 96 % 2.29 mm 26.00 W/m2
12:20 5.4 °C 4.9 °C 1013.1 hPa South 29 km/h 38.6 km/h 96 % 2.29 mm 21.00 W/m2
12:25 5.3 °C 4.7 °C 1012.8 hPa SSE 33.8 km/h 35.4 km/h 96 % 2.29 mm 26.00 W/m2
12:30 5.2 °C 4.6 °C 1012.8 hPa SSE 25.7 km/h 38.6 km/h 96 % 1.78 mm 21.00 W/m2
12:35 5.2 °C 4.6 °C 1012.8 hPa SSE 22.5 km/h 40.2 km/h 96 % 1.78 mm 23.00 W/m2
12:40 5.1 °C 4.4 °C 1012.8 hPa SE 41.8 km/h 43.5 km/h 96 % 1.78 mm 23.00 W/m2
12:45 5 °C 4.4 °C 1012.8 hPa SSE 30.6 km/h 41.8 km/h 96 % 2.29 mm 26.00 W/m2
12:50 4.9 °C 4.3 °C 1012.8 hPa SE 20.9 km/h 38.6 km/h 96 % 3.05 mm 30.00 W/m2
12:55 4.8 °C 4.3 °C 1012.4 hPa SSE 29 km/h 41.8 km/h 96 % 3.05 mm 26.00 W/m2
13:00 4.8 °C 4.3 °C 1012.4 hPa SSE 17.7 km/h 37 km/h 96 % 2.54 mm 23.00 W/m2
13:05 4.8 °C 4.2 °C 1012.1 hPa SSE 16.1 km/h 43.5 km/h 96 % 3.05 mm 26.00 W/m2
13:10 4.7 °C 4.2 °C 1011.7 hPa SSE 17.7 km/h 46.7 km/h 96 % 3.05 mm 26.00 W/m2
13:15 4.7 °C 4.2 °C 1011.7 hPa SSE 25.7 km/h 43.5 km/h 96 % 2.29 mm 25.00 W/m2
13:20 4.7 °C 4.1 °C 1011.7 hPa SSE 22.5 km/h 48.3 km/h 96 % 2.54 mm 18.00 W/m2
13:26 4.7 °C 4.1 °C 1011.7 hPa South 19.3 km/h 40.2 km/h 96 % 3.3 mm 19.00 W/m2
13:31 4.7 °C 4.2 °C 1011.7 hPa SSE 33.8 km/h 37 km/h 96 % 3.3 mm 16.00 W/m2
13:36 4.7 °C 4.2 °C 1011.7 hPa SSE 16.1 km/h 40.2 km/h 96 % 2.54 mm 16.00 W/m2
13:41 4.8 °C 4.2 °C 1011.7 hPa SSE 11.3 km/h 33.8 km/h 96 % 4.06 mm 14.00 W/m2
13:46 4.8 °C 4.2 °C 1011.7 hPa Calm   22.5 km/h 96 % 9.14 mm 12.00 W/m2
13:51 4.8 °C 4.2 °C 1011.7 hPa SSW 22.5 km/h 35.4 km/h 96 % 5.59 mm 14.00 W/m2
13:56 4.8 °C 4.2 °C 1011.7 hPa SSE 33.8 km/h 33.8 km/h 96 % 4.32 mm 14.00 W/m2
14:01 4.8 °C 4.2 °C 1011.4 hPa SE 16.1 km/h 46.7 km/h 96 % 4.06 mm 16.00 W/m2
14:06 4.8 °C 4.3 °C 1011.4 hPa SSE 14.5 km/h 41.8 km/h 96 % 3.56 mm 14.00 W/m2
14:11 4.9 °C 4.3 °C 1011.4 hPa SSE 16.1 km/h 41.8 km/h 96 % 2.54 mm 14.00 W/m2
14:16 5 °C 4.4 °C 1011.4 hPa SSE 14.5 km/h 38.6 km/h 96 % 3.56 mm 16.00 W/m2
14:21 5.1 °C 4.4 °C 1011.1 hPa SSE 32.2 km/h 48.3 km/h 96 % 3.3 mm 19.00 W/m2
14:26 5.1 °C 4.6 °C 1011.1 hPa SE 30.6 km/h 43.5 km/h 96 % 4.57 mm 21.00 W/m2
14:31 5.2 °C 4.6 °C 1011.1 hPa South 8 km/h 45.1 km/h 96 % 3.56 mm 21.00 W/m2
14:36 5.3 °C 4.7 °C 1011.1 hPa SSW 17.7 km/h 56.3 km/h 96 % 3.05 mm 23.00 W/m2
14:41 5.4 °C 5 °C 1011.1 hPa South 24.1 km/h 46.7 km/h 97 % 3.81 mm 11.00 W/m2
14:46 5.6 °C 5.1 °C 1011.1 hPa SSE 35.4 km/h 40.2 km/h 97 % 3.56 mm 12.00 W/m2
14:51 5.7 °C 5.2 °C 1010.7 hPa South 33.8 km/h 43.5 km/h 97 % 4.57 mm 12.00 W/m2
14:56 5.7 °C 5.3 °C 1011.1 hPa SSE 25.7 km/h 41.8 km/h 97 % 3.05 mm 12.00 W/m2
15:01 5.8 °C 5.3 °C 1010.7 hPa SSE 27.4 km/h 41.8 km/h 97 % 2.29 mm 9.00 W/m2
15:06 5.8 °C 5.4 °C 1010.7 hPa South 25.7 km/h 48.3 km/h 97 % 2.03 mm 12.00 W/m2
15:11 5.9 °C 5.4 °C 1010.4 hPa South 29 km/h 43.5 km/h 97 % 2.03 mm 14.00 W/m2
15:16 5.9 °C 5.5 °C 1010 hPa South 24.1 km/h 45.1 km/h 97 % 3.05 mm 12.00 W/m2
15:21 6 °C 5.6 °C 1010 hPa SSE 22.5 km/h 33.8 km/h 97 % 3.56 mm 11.00 W/m2
15:26 6.1 °C 5.6 °C 1009.7 hPa South 11.3 km/h 43.5 km/h 97 % 3.81 mm 9.00 W/m2
15:31 6.1 °C 5.7 °C 1009.7 hPa South 19.3 km/h 19.3 km/h 97 % 2.29 mm 7.00 W/m2
15:36 6.2 °C 5.8 °C 1009.7 hPa South 32.2 km/h 32.2 km/h 97 % 4.06 mm 7.00 W/m2
15:41 6.3 °C 5.8 °C 1009.4 hPa SE 22.5 km/h 30.6 km/h 97 % 3.3 mm 5.00 W/m2
15:46 6.3 °C 5.9 °C 1009 hPa SSW 14.5 km/h 16.1 km/h 97 % 3.81 mm 5.00 W/m2
15:51 6.4 °C 5.9 °C 1009 hPa South 20.9 km/h 24.1 km/h 97 % 3.05 mm 7.00 W/m2
15:56 6.4 °C 6 °C 1009 hPa SSE 14.5 km/h 19.3 km/h 97 % 2.29 mm 5.00 W/m2
16:01 6.5 °C 6.1 °C 1008.7 hPa SE 20.9 km/h 43.5 km/h 97 % 2.29 mm 5.00 W/m2
16:06 6.6 °C 6.1 °C 1008.7 hPa SSE 17.7 km/h 17.7 km/h 97 % 1.27 mm 5.00 W/m2
16:11 6.7 °C 6.2 °C 1008.4 hPa SE 38.6 km/h 38.6 km/h 97 % 1.02 mm 7.00 W/m2
16:16 6.7 °C 6.3 °C 1008.4 hPa SSE 29 km/h 40.2 km/h 97 % 0 mm 5.00 W/m2
16:21 6.8 °C 6.3 °C 1007.7 hPa SSE 29 km/h 46.7 km/h 97 % 0 mm 5.00 W/m2
16:26 6.8 °C 6.3 °C 1008 hPa SSW 14.5 km/h 27.4 km/h 97 % 0 mm 0.00 W/m2
16:31 6.8 °C 6.4 °C 1008 hPa South 41.8 km/h 41.8 km/h 97 % 1.02 mm 0.00 W/m2
16:36 6.9 °C 6.4 °C 1008.4 hPa South 27.4 km/h 27.4 km/h 97 % 3.56 mm 0.00 W/m2
16:41 6.9 °C 6.5 °C 1008 hPa South 29 km/h 43.5 km/h 97 % 4.83 mm 0.00 W/m2
16:46 6.9 °C 6.5 °C 1008 hPa South 40.2 km/h 40.2 km/h 97 % 3.56 mm 0.00 W/m2
16:51 7 °C 6.6 °C 1007.7 hPa SE 16.1 km/h 32.2 km/h 97 % 3.3 mm 0.00 W/m2
16:56 7.1 °C 6.6 °C 1008 hPa SSW 9.7 km/h 17.7 km/h 97 % 2.29 mm 0.00 W/m2
17:01 7.1 °C 6.7 °C 1008 hPa SSW 20.9 km/h 24.1 km/h 97 % 4.06 mm 0.00 W/m2
17:06 7.1 °C 6.7 °C 1007.7 hPa SSW 11.3 km/h 22.5 km/h 97 % 4.57 mm 0.00 W/m2
17:11 7.2 °C 6.7 °C 1007.3 hPa SE 22.5 km/h 27.4 km/h 97 % 2.54 mm 0.00 W/m2
17:16 7.2 °C 6.7 °C 1007.3 hPa SSW 12.9 km/h 41.8 km/h 97 % 2.54 mm 0.00 W/m2
17:21 7.2 °C 6.8 °C 1007 hPa SW 40.2 km/h 49.9 km/h 97 % 2.54 mm 0.00 W/m2
17:26 7.3 °C 6.8 °C 1007 hPa SSW 14.5 km/h 33.8 km/h 97 % 2.29 mm 0.00 W/m2
17:31 7.3 °C 6.9 °C 1006.7 hPa Calm   22.5 km/h 97 % 3.05 mm 0.00 W/m2
17:36 7.3 °C 6.9 °C 1006.7 hPa South 19.3 km/h 30.6 km/h 97 % 2.29 mm 0.00 W/m2
17:41 7.3 °C 6.9 °C 1006.7 hPa SSE 19.3 km/h 51.5 km/h 97 % 3.56 mm 0.00 W/m2
17:46 7.3 °C 6.9 °C 1006.3 hPa SSE 30.6 km/h 30.6 km/h 97 % 2.54 mm 0.00 W/m2
17:51 7.4 °C 6.9 °C 1006.3 hPa SSE 17.7 km/h 29 km/h 97 % 5.59 mm 0.00 W/m2
17:56 7.4 °C 7 °C 1006.3 hPa SSE 35.4 km/h 37 km/h 97 % 2.03 mm 0.00 W/m2
18:01 7.4 °C 7 °C 1006 hPa SSE 37 km/h 40.2 km/h 97 % 2.03 mm 0.00 W/m2
18:07 7.4 °C 7 °C 1006 hPa SSW 33.8 km/h 59.5 km/h 97 % 2.03 mm 0.00 W/m2
18:12 7.5 °C 7.1 °C 1006 hPa South 20.9 km/h 40.2 km/h 97 % 1.78 mm 0.00 W/m2
18:17 7.5 °C 7.1 °C 1005.6 hPa SSE 25.7 km/h 40.2 km/h 97 % 1.27 mm 0.00 W/m2
18:22 7.5 °C 7.1 °C 1005.6 hPa South 30.6 km/h 35.4 km/h 97 % 1.02 mm 0.00 W/m2
18:27 7.6 °C 7.1 °C 1005.3 hPa South 17.7 km/h 33.8 km/h 97 % 2.29 mm 0.00 W/m2
18:32 7.5 °C 7.1 °C 1005.3 hPa SSE 25.7 km/h 38.6 km/h 97 % 6.1 mm 0.00 W/m2
18:37 7.6 °C 7.1 °C 1005.6 hPa South 32.2 km/h 32.2 km/h 97 % 6.35 mm 0.00 W/m2
18:42 7.6 °C 7.1 °C 1005.3 hPa SSW 22.5 km/h 45.1 km/h 97 % 6.86 mm 0.00 W/m2
18:47 7.6 °C 7.1 °C 1005.3 hPa SSE 25.7 km/h 45.1 km/h 97 % 9.4 mm 0.00 W/m2
18:52 7.6 °C 7.2 °C 1005.3 hPa SW 35.4 km/h 40.2 km/h 97 % 8.38 mm 0.00 W/m2
18:57 7.7 °C 7.2 °C 1005.6 hPa South 20.9 km/h 37 km/h 97 % 11.94 mm 0.00 W/m2
19:02 7.7 °C 7.2 °C 1005.3 hPa SSE 16.1 km/h 41.8 km/h 97 % 9.14 mm 0.00 W/m2
19:07 7.7 °C 7.2 °C 1005.3 hPa South 43.5 km/h 67.6 km/h 97 % 7.62 mm 0.00 W/m2
19:12 7.7 °C 7.2 °C 1005.3 hPa South 37 km/h 53.1 km/h 97 % 10.67 mm 0.00 W/m2
19:17 7.7 °C 7.3 °C 1005.3 hPa SSE 19.3 km/h 38.6 km/h 97 % 6.6 mm 0.00 W/m2
19:22 7.7 °C 7.3 °C 1006.3 hPa South 11.3 km/h 37 km/h 97 % 13.21 mm 0.00 W/m2
19:27 7.7 °C 7.3 °C 1005.6 hPa SSE 20.9 km/h 35.4 km/h 97 % 10.41 mm 0.00 W/m2
19:32 7.8 °C 7.3 °C 1005 hPa South 22.5 km/h 33.8 km/h 97 % 5.59 mm 0.00 W/m2
19:37 7.8 °C 7.3 °C 1004.6 hPa South 32.2 km/h 41.8 km/h 97 % 14.73 mm 0.00 W/m2
19:42 7.8 °C 7.3 °C 1004.3 hPa South 14.5 km/h 22.5 km/h 97 % 4.32 mm 0.00 W/m2
19:47 7.8 °C 7.3 °C 1004.6 hPa South 17.7 km/h 40.2 km/h 97 % 2.03 mm 0.00 W/m2
19:52 7.8 °C 7.4 °C 1004.3 hPa South 37 km/h 51.5 km/h 97 % 4.32 mm 0.00 W/m2
19:57 7.8 °C 7.4 °C 1004.6 hPa South 25.7 km/h 29 km/h 97 % 7.11 mm 0.00 W/m2
20:02 7.8 °C 7.4 °C 1004.6 hPa SW 19.3 km/h 41.8 km/h 97 % 3.81 mm 0.00 W/m2
20:07 7.9 °C 7.4 °C 1005 hPa South 27.4 km/h 57.9 km/h 97 % 3.3 mm 0.00 W/m2
20:12 8 °C 7.6 °C 1005 hPa SSE 19.3 km/h 66 km/h 97 % 4.83 mm 0.00 W/m2
20:17 8.1 °C 7.6 °C 1005.6 hPa SSW 6.4 km/h 45.1 km/h 97 % 7.11 mm 0.00 W/m2
20:22 8.2 °C 7.7 °C 1005 hPa South 32.2 km/h 43.5 km/h 97 % 8.64 mm 0.00 W/m2
20:27 8.2 °C 7.7 °C 1005.3 hPa SSE 8 km/h 51.5 km/h 97 % 11.43 mm 0.00 W/m2
20:32 8.1 °C 7.7 °C 1005.3 hPa SSW 16.1 km/h 37 km/h 97 % 8.64 mm 0.00 W/m2
20:37 8.1 °C 7.7 °C 1005.6 hPa South 27.4 km/h 38.6 km/h 97 % 3.56 mm 0.00 W/m2
20:42 8.1 °C 7.7 °C 1005.3 hPa SSW 25.7 km/h 45.1 km/h 97 % 4.06 mm 0.00 W/m2
20:47 8.2 °C 7.7 °C 1005.3 hPa SSW 27.4 km/h 29 km/h 97 % 2.54 mm 0.00 W/m2
20:52 8.2 °C 7.7 °C 1006.7 hPa WSW 29 km/h 41.8 km/h 97 % 5.33 mm 0.00 W/m2
20:57 8.2 °C 7.7 °C 1006.7 hPa WNW 25.7 km/h 37 km/h 97 % 36.83 mm 0.00 W/m2
21:02 7.8 °C 7.3 °C 1007 hPa West 27.4 km/h 27.4 km/h 97 % 7.37 mm 0.00 W/m2
21:07 7.6 °C 7.1 °C 1006.7 hPa SW 16.1 km/h 41.8 km/h 97 % 5.59 mm 0.00 W/m2
21:12 7.7 °C 7.3 °C 1007 hPa South 17.7 km/h 37 km/h 97 % 4.06 mm 0.00 W/m2
21:17 7.8 °C 7.6 °C 1006.7 hPa WSW 32.2 km/h 38.6 km/h 98 % 6.6 mm 0.00 W/m2
21:22 7.8 °C 7.6 °C 1006.7 hPa SW 45.1 km/h 45.1 km/h 98 % 4.32 mm 0.00 W/m2
21:27 7.7 °C 7.3 °C 1006.3 hPa SSW 14.5 km/h 22.5 km/h 97 % 2.03 mm 0.00 W/m2
21:32 7.6 °C 7.2 °C 1006.7 hPa SW 14.5 km/h 32.2 km/h 97 % 1.78 mm 0.00 W/m2
21:37 7.6 °C 7.1 °C 1006.7 hPa WSW 16.1 km/h 30.6 km/h 97 % 1.52 mm 0.00 W/m2
21:42 7.5 °C 7.1 °C 1007 hPa WSW 11.3 km/h 19.3 km/h 97 % 1.02 mm 0.00 W/m2
21:47 7.4 °C 7 °C 1007 hPa WSW 9.7 km/h 24.1 km/h 97 % 0 mm 0.00 W/m2
21:52 7.4 °C 7 °C 1007 hPa WSW 11.3 km/h 25.7 km/h 97 % 0 mm 0.00 W/m2
21:57 7.4 °C 7 °C 1007 hPa WSW 14.5 km/h 20.9 km/h 97 % 0 mm 0.00 W/m2
22:02 7.4 °C 7 °C 1007 hPa SW 8 km/h 19.3 km/h 97 % 0 mm 0.00 W/m2
22:07 7.4 °C 7 °C 1006.7 hPa SW 9.7 km/h 22.5 km/h 97 % 0 mm 0.00 W/m2
22:12 7.4 °C 7 °C 1007 hPa Calm   30.6 km/h 97 % 0 mm 0.00 W/m2
22:17 7.4 °C 6.9 °C 1007.3 hPa SW 17.7 km/h 27.4 km/h 97 % 0 mm 0.00 W/m2
22:22 7.3 °C 6.9 °C 1007.3 hPa South 9.7 km/h 33.8 km/h 97 % 0 mm 0.00 W/m2
22:27 7.3 °C 6.9 °C 1007.3 hPa SSW 1.6 km/h 41.8 km/h 97 % 0 mm 0.00 W/m2
22:32 7.3 °C 6.8 °C 1007.7 hPa West 27.4 km/h 35.4 km/h 97 % 0 mm 0.00 W/m2
22:38 7.2 °C 6.8 °C 1007.3 hPa WSW 17.7 km/h 25.7 km/h 97 % 0 mm 0.00 W/m2
22:43 7.1 °C 6.7 °C 1007.3 hPa West 17.7 km/h 22.5 km/h 97 % 0 mm 0.00 W/m2
22:48 7.1 °C 6.6 °C 1007.3 hPa SW 8 km/h 24.1 km/h 97 % 0 mm 0.00 W/m2
22:53 7 °C 6.6 °C 1007.3 hPa SSE 12.9 km/h 19.3 km/h 97 % 0 mm 0.00 W/m2
22:58 6.9 °C 6.5 °C 1007.3 hPa SW 8 km/h 33.8 km/h 97 % 0 mm 0.00 W/m2
23:03 6.9 °C 6.4 °C 1007.3 hPa SW 12.9 km/h 29 km/h 97 % 0 mm 0.00 W/m2
23:08 6.9 °C 6.4 °C 1007.3 hPa SW 3.2 km/h 30.6 km/h 97 % 0 mm 0.00 W/m2
23:13 6.8 °C 6.4 °C 1007 hPa South 29 km/h 29 km/h 97 % 0 mm 0.00 W/m2
23:18 6.8 °C 6.4 °C 1007 hPa SSW 9.7 km/h 24.1 km/h 97 % 18.29 mm 0.00 W/m2
23:23 6.8 °C 6.4 °C 1006.7 hPa South 24.1 km/h 30.6 km/h 97 % 3.05 mm 0.00 W/m2
23:28 6.9 °C 6.4 °C 1006.7 hPa SSW 11.3 km/h 43.5 km/h 97 % 1.52 mm 0.00 W/m2
23:33 6.8 °C 6.4 °C 1007 hPa SSW 32.2 km/h 32.2 km/h 97 % 1.02 mm 0.00 W/m2
23:38 6.8 °C 6.4 °C 1006.7 hPa SSW 9.7 km/h 32.2 km/h 97 % 5.08 mm 0.00 W/m2
23:43 6.8 °C 6.3 °C 1006.7 hPa South 29 km/h 40.2 km/h 97 % 1.78 mm 0.00 W/m2
23:48 6.7 °C 6.3 °C 1006.3 hPa South 30.6 km/h 37 km/h 97 % 1.27 mm 0.00 W/m2
23:53 6.7 °C 6.2 °C 1006.7 hPa SSW 27.4 km/h 32.2 km/h 97 % 1.02 mm 0.00 W/m2
23:58 6.6 °C 6.2 °C 1006.7 hPa South 14.5 km/h 30.6 km/h 97 % 1.02 mm 0.00 W/m2
Juneau County Weather
Compliments of Weather Underground - 4.5 mb
 WU-history PHP script courtesy of   Juneau County Weather.
powered by Cumulus v1.9.3 (1059)
Ambient Weather VWS v14.00
Top Contact Website Map Copyright © 2007 - 2018 Foresthillweather.com Never base important decisions on this or any weather information obtained from the Internet